Weather in Brodarica

Croatia     43°40′47″N   15°55′06″E
В апреле 2022 года жителям России запретили посещать сайт meteo.paraplan.net по решению Генеральной прокуратуры. Аудитория сайта уменьшилась в 10 раз. Владельцы сайта не видят смысла в поддержке погодного сервера в таких условиях. Сайт будет закрыт в октябре.
temp.,
°C
wind,
m/s
gust,
m/s
humid.,
%
clouds,
%
prec.,
mm/h
press.,
hPa
HPBL,
m
25 september, sun
sun2523:00+16ese51155100 0.0 1018631
02:00+16se81359100 0.0 1016817
05:00+16se81461100 0.0 1015938
08:00+16se81472100 0.6 1015844
11:00+15se61287100 5.7 1015725
14:00+15se51289100 6.6 1014662
17:00+16se61192100 0.2 1013834
20:00+17se61191100 1.0 1013729
26 september, mon
mon2623:00+16se5129044 1.1 1013573
02:00+16se41191100 1.4 1011425
05:00+16ese3992100 2.6 1010293
08:00+16ese3990100 5.1 1009302
11:00+20se7982100 2.4 1009535
14:00+21sse677797 4.0 1008857
17:00+17sw2494100 5.4 1007307
20:00+16ene1296100 13.7 1008138
27 september, tue
tue2723:00+15e229231 0.6 100742
02:00+15e11934 2.3 100520
05:00+14ne11901 0.4 100420
08:00+15ene118476 0.6 100443
11:00+20nw12586 0.1 1004798
14:00+21wsw33553 1.1 10031190
17:00+19sw346386 1.4 1003318
20:00+17ne117142 2.2 100521
28 september, wed
wed2823:00+16ene22725 0.1 100537
02:00+16ene227298 0.1 100632
05:00+15ene2275100 0.0 100532
08:00+15e247696 0.0 1005124
11:00+19se6969100 0.8 1004735
14:00+20se796459 1.6 1004820
17:00+20se686789 0.9 1003689
20:00+19sse7136942 1.2 1003399
29 september, thu
thu2923:00+17ese5118284 1.2 1003276
02:00+16se510877 3.4 1003201
05:00+15ese499115 0.8 1003200
08:00+16ese5985100 1.1 1004208
11:00+21sse67646 0.4 1006838
14:00+22sse775878 1.0 1006963
17:00+20se697012 0.6 1007589
20:00+18ese5137964 0.7 1008501